Weather History for Slidell, LA

Change the Weather History Date:

Thursday, October 27, 2011

  Actual Average (KNEW) Record (KNEW)
Temperature  
Mean Temperature 68 °F 68 °F  
Max Temperature 82 °F 77 °F 88 °F (1995)
Min Temperature 53 °F 59 °F 37 °F (1965)
Degree Days  
Heating Degree Days 0 2  
Month to date heating degree days 15  
Since 1 July heating degree days 15  
Cooling Degree Days 2 5  
Month to date cooling degree days 204  
Year to date cooling degree days 2893  
Growing Degree Days 18 (Base 50)    
Moisture  
Dew Point 55 °F    
Average Humidity 77    
Maximum Humidity 94    
Minimum Humidity 34    
Precipitation  
Precipitation 0.00 in 0.12 in 4.20 in (1985)
Month to date precipitation 3.06  
Year to date precipitation 52.24  
Snow  
Snow 0.00 in - - ()
Month to date snowfall  
Since 1 July snowfall  
Since 1 September snowfall  
Snow Depth -    
Sea Level Pressure  
Sea Level Pressure 29.92 in    
Wind  
Wind Speed 1 mph (South)    
Max Wind Speed 8 mph    
Max Gust Speed -    
Visibility 8 miles    
Events Fog    
T = Trace of Precipitation, MM = Missing Value Source: NWS Daily Summary

Daily Weather History Graph

Daily Weather History Graph

Search for Another Location

Airport:

Trip Planner

Search our weather history database for the weather conditions in past years. The results will help you decide how hot, cold, wet, or windy it might be!

Date:

Astronomy

Oct. 27, 2011 Rise Set
Actual Time 7:09 AM CDT 6:16 PM CDT
Civil Twilight 6:45 AM CDT 6:40 PM CDT
Nautical Twilight 6:16 AM CDT 7:09 PM CDT
Astronomical Twilight 5:48 AM CDT 7:36 PM CDT
Moon 8:04 AM CDT (10/27) 6:55 PM CDT (10/27)
Length of Visible Light 11h 55m
Length of Day
11h 06m
New Moon, 1% of the Moon is Illuminated
Oct 27
New Moon
Nov 2
First Quarter
Nov 10
Full
Nov 18
Last Quarter
Nov 25
New

Hourly Weather History & Observations

Time (CDT) Temp. Heat Index Dew Point Humidity Pressure Visibility Wind Dir Wind Speed Gust Speed Precip Events Conditions
12:53 AM 57.0 °F - 53.1 °F 87% 29.96 in 10.0 mi Calm Calm - N/A   Clear
1:53 AM 55.9 °F - 52.0 °F 87% 29.95 in 10.0 mi Calm Calm - N/A   Clear
3:02 AM 55.4 °F - 51.8 °F 88% 29.94 in 9.0 mi Calm Calm - N/A   Scattered Clouds
3:10 AM 55.4 °F - 51.8 °F 88% 29.94 in 10.0 mi Calm Calm - N/A   Mostly Cloudy
3:43 AM 53.6 °F - 51.8 °F 94% 29.93 in 1.2 mi Calm Calm - N/A   Overcast
3:51 AM 53.6 °F - 51.8 °F 94% 29.93 in 0.5 mi Calm Calm - N/A Fog Fog
3:53 AM 53.1 °F - 51.1 °F 93% 29.93 in 0.8 mi Calm Calm - N/A   Mist
3:58 AM 53.6 °F - 51.8 °F 94% 29.92 in 2.0 mi North 3.5 mph - N/A   Overcast
4:07 AM 53.6 °F - 51.8 °F 94% 29.92 in 4.0 mi Calm Calm - N/A   Overcast
4:53 AM 54.0 °F - 51.1 °F 90% 29.92 in 10.0 mi Calm Calm - N/A   Overcast
5:10 AM 53.6 °F - 51.8 °F 94% 29.92 in 10.0 mi Calm Calm - N/A   Mostly Cloudy
5:53 AM 53.1 °F - 50.0 °F 89% 29.92 in 10.0 mi Calm Calm - N/A   Partly Cloudy
6:53 AM 53.1 °F - 50.0 °F 89% 29.92 in 10.0 mi Calm Calm - N/A   Clear
7:53 AM 54.0 °F - 51.1 °F 90% 29.92 in 5.0 mi Calm Calm - N/A   Clear
8:53 AM 66.0 °F - 61.0 °F 84% 29.94 in 10.0 mi Calm Calm - N/A   Partly Cloudy
9:53 AM 75.9 °F - 60.1 °F 58% 29.94 in 10.0 mi South 5.8 mph - N/A   Partly Cloudy
10:53 AM 78.1 °F - 57.9 °F 50% 29.94 in 10.0 mi South 6.9 mph - N/A   Clear
11:53 AM 78.1 °F - 57.0 °F 48% 29.93 in 10.0 mi South 6.9 mph - N/A   Scattered Clouds
12:53 PM 78.1 °F - 59.0 °F 52% 29.91 in 10.0 mi SW 3.5 mph - N/A   Clear
1:53 PM 78.1 °F - 61.0 °F 56% 29.89 in 10.0 mi NNW 3.5 mph - N/A   Overcast
2:53 PM 82.0 °F - 51.1 °F 34% 29.87 in 10.0 mi Calm Calm - N/A   Clear
3:53 PM 82.0 °F 81.6 °F 55.9 °F 41% 29.86 in 10.0 mi South 8.1 mph - N/A   Clear
4:53 PM 81.0 °F 80.7 °F 55.0 °F 41% 29.87 in 10.0 mi Variable 4.6 mph - N/A   Clear
5:53 PM 75.9 °F - 61.0 °F 60% 29.88 in 10.0 mi SSE 6.9 mph - N/A   Clear
7:53 PM 64.0 °F - 60.1 °F 87% 29.91 in 10.0 mi South 4.6 mph - N/A   Clear
8:53 PM 69.1 °F - 62.1 °F 78% 29.91 in 10.0 mi SSE 4.6 mph - N/A   Clear
9:53 PM 64.0 °F - 60.1 °F 87% 29.91 in 10.0 mi Calm Calm - N/A   Clear
10:53 PM 62.1 °F - 57.9 °F 86% 29.91 in 10.0 mi Calm Calm - N/A   Clear
11:53 PM 61.0 °F - 57.9 °F 90% 29.90 in 10.0 mi Calm Calm - N/A   Clear